Tracking 34406 objects as of 15-Jun-2026
HD Live streaming from Space Station
objects crossing your sky now

STARLINK-37745

Track STARLINK-37745 now!
10-day predictions
STARLINK-37745 is classified as:


NORAD ID: 69232
Int'l Code: 2026-115X
Perigee: 371.9 km
Apogee: 374.3 km
Inclination: 97.3 °
Period: 91.9 minutes
Semi major axis: 6744 km
RCS: Unknown
Launch date: May 26, 2026
Source: United States (US)
Launch site: AIR FORCE WESTERN TEST RANGE (AFWTR)
Your satellite tracking list
Your tracking list is empty




NASA's NSSDC Master Catalog

Two Line Element Set (TLE):
1 69232U 26115X   26166.25002315 -.02675886  00000-0 -28566-1 0  9998
2 69232  97.2837 183.6387 0001755  99.0590 174.9841 15.67523700  4381
Source of the keplerian elements: AFSPC